Content
SEND FEEDBACK

Daily
Averages
Monthly
Summary
France

ROUEN, FRANCE


Home > Europe > France
Elevation: 515 feet     Latitude: 49 23N     Longitude: 001 11E

WEATHER
 
SELECT A DAY
Number of Records: 173,620;   Date Range: 7/1/96 - 9/15/14
 
SHARE

PRINT THIS DATA

[ ← Previous Day ]
WEATHER ALMANAC - MAY 17, 2013
[ Next Day → ]
[ °C ]   °F
Weather ElementAverageHighLow
Temperature50.1 °F59 °F (2:30 pm)41 °F (3:30 am)
Dewpoint43.2 °F46.4 °F (9:00 am)39.2 °F (3:30 am)
Humidity78.4 %100 % (6:30 am)53 % (2:00 pm)
Barometer29.63 in29.77 in (10:30 pm)29.53 in (12:30 am)
Wind Speed8.3 mph12.7 mph (5:30 pm)
Weather ElementAverage
Visibility6.4 mi
Wind DirectionENE (59.4 °)

Weather ElementTotal
Precipitation---
Heating Degree Days15 (Base 65)
Averaged from 51 records on May 17, 2013
WEATHER CONDITIONS BREAKOUT
WIND DIRECTION BREAKOUT
WEATHER BY HOUR - MAY 17, 2013
[ °C ]   °F
Local TimeTemperatureDewpointHumidityBarometerVisibilityWind DirectionWind SpeedGust SpeedPrecipitationEventsConditions
12:30 AM46.4 °F42.8 °F87 %29.53 in6.2 miNorth (360°)4.6 mph
1:00 AM46.4 °F42.8 °F87 %29.53 in6.2 miNE (50°)4.6 mph
1:30 AM44.6 °F42.8 °F93 %29.53 in6.2 miENE (70°)5.8 mphMostly Cloudy
2:00 AM44.0 °F42.0 °F89 %29.55 in34.0 miENE (60°)6.9 mphClear
2:00 AM44.6 °F42.8 °F93 %29.53 in6.2 miENE (60°)6.9 mphMostly Cloudy
2:30 AM42.8 °F41.0 °F93 %29.53 in6.2 miENE (70°)6.9 mphMostly Cloudy
3:00 AM42.8 °F41.0 °F93 %29.53 in6.2 miENE (60°)6.9 mph
3:30 AM41.0 °F39.2 °F93 %29.53 in6.2 miENE (60°)6.9 mph
4:00 AM42.8 °F41.0 °F93 %29.53 in6.2 miENE (60°)6.9 mph
4:30 AM42.8 °F41.0 °F93 %29.53 in6.2 miENE (70°)5.8 mph
5:00 AM42.8 °F41.0 °F93 %29.53 in6.2 miENE (70°)4.6 mph
5:30 AM41.0 °F39.2 °F93 %29.53 in3.7 miENE (60°)6.9 mph
6:00 AM42.8 °F41.0 °F93 %29.53 in3.1 miEast (80°)6.9 mphMist
6:30 AM42.8 °F42.8 °F100 %29.53 inEast (80°)6.9 mphMist
7:00 AM44.6 °F42.8 °F93 %29.56 in1.7 miENE (70°)6.9 mphMist
7:30 AM42.8 °F42.8 °F100 %29.56 in0.6 miENE (60°)6.9 mphMist
8:00 AM44.0 °F44.0 °F98 %29.61 in0.0 miENE (70°)11.5 mphFogPartial Fog
8:00 AM44.6 °F44.6 °F100 %29.59 in0.2 miENE (70°)11.5 mphFogFog
8:30 AM44.6 °F44.6 °F100 %29.59 in1.2 miENE (70°)10.4 mphMist
9:00 AM46.4 °F46.4 °F100 %29.59 inENE (70°)9.2 mphOvercast
9:30 AM48.2 °F46.4 °F93 %29.62 in3.1 miENE (60°)8.1 mphOvercast
10:00 AM48.2 °F46.4 °F93 %29.62 in4.3 miENE (60°)11.5 mphOvercast
10:30 AM50.0 °F46.4 °F87 %29.62 in4.3 miNE (50°)8.1 mphOvercast
11:00 AM51.8 °F46.4 °F82 %29.62 in6.2 miENE (60°)9.2 mphOvercast
11:30 AM51.8 °F44.6 °F76 %29.65 in6.2 miNE (50°)10.4 mphOvercast
12:00 PM51.8 °F44.6 °F76 %29.62 in5.6 miENE (60°)8.1 mphMostly Cloudy
12:30 PM55.4 °F44.6 °F67 %29.65 in6.2 miNE (40°)8.1 mphMostly Cloudy
1:00 PM55.4 °F44.6 °F67 %29.65 in6.2 miNE (50°)6.9 mphOvercast
1:30 PM57.2 °F46.4 °F67 %29.65 in6.2 miNE (50°)9.2 mphMostly Cloudy
2:00 PM57.0 °F45.0 °F53 %29.67 in12.0 miNE (50°)9.2 mphPartly Cloudy
2:00 PM57.2 °F44.6 °F63 %29.65 in6.2 miNE (50°)9.2 mphMostly Cloudy
2:30 PM59.0 °F44.6 °F59 %29.65 in6.2 miNE (40°)10.4 mphMostly Cloudy
3:00 PM57.2 °F44.6 °F63 %29.65 in6.2 miNE (50°)10.4 mphMostly Cloudy
3:30 PM59.0 °F42.8 °F55 %29.65 in6.2 miNE (40°)8.1 mphMostly Cloudy
4:00 PM59.0 °F44.6 °F59 %29.65 in6.2 miENE (60°)10.4 mphMostly Cloudy
4:30 PM57.2 °F42.8 °F59 %29.65 in6.2 miNE (40°)11.5 mphMostly Cloudy
5:00 PM59.0 °F42.8 °F55 %29.65 in6.2 miNE (50°)9.2 mphMostly Cloudy
5:30 PM57.2 °F42.8 °F59 %29.65 in6.2 miNE (50°)12.7 mphMostly Cloudy
6:00 PM57.2 °F44.6 °F63 %29.68 in6.2 miNE (50°)12.7 mphScattered Clouds
6:30 PM57.2 °F41.0 °F55 %29.68 in6.2 miNE (40°)10.4 mphMostly Cloudy
7:00 PM55.4 °F41.0 °F58 %29.68 in6.2 miNE (50°)8.1 mphMostly Cloudy
7:30 PM57.2 °F42.8 °F59 %29.68 in6.2 miNE (40°)8.1 mphPartly Cloudy
8:00 PM54.0 °F42.0 °F55 %29.71 in22.0 miNE (40°)9.2 mphClear
8:00 PM53.6 °F42.8 °F67 %29.71 in6.2 miNE (40°)9.2 mphScattered Clouds
8:30 PM53.6 °F42.8 °F67 %29.71 in6.2 miENE (60°)4.6 mphOvercast
9:00 PM53.6 °F42.8 °F67 %29.74 in6.2 miNNE (20°)8.1 mphMostly Cloudy
9:30 PM51.8 °F42.8 °F71 %29.74 in6.2 miNNE (20°)6.9 mphPartly Cloudy
10:00 PM50.0 °F42.8 °F76 %29.74 in6.2 miNNE (30°)8.1 mph
10:30 PM50.0 °F42.8 °F76 %29.77 in6.2 miNE (40°)8.1 mph
11:00 PM48.2 °F42.8 °F82 %29.77 in6.2 miNE (40°)8.1 mph
11:30 PM46.4 °F42.8 °F87 %29.77 in6.2 miNNE (30°)6.9 mph
Hourly data recorded from LFOP, located miles away from Rouen, France







STORIES FROM OUR PARTNERS